EN

Hourly Weather Klagenfurt

Today, 2 March, Tuesday

Time Temperature Precipitation Wind Pressure Humidity
00:00 0°C° 0 mm 0 mps 699 mmHg 87%
01:00 +1°C° 0 mm 1 mps 699 mmHg 87%
02:00 +1°C° 0 mm 1 mps 699 mmHg 88%
03:00 0°C° 0 mm 0 mps 699 mmHg 89%
04:00 0°C° 0 mm 0 mps 699 mmHg 90%
05:00 0°C° 0 mm 0 mps 699 mmHg 90%
06:00 -1°C° 0 mm 0 mps 699 mmHg 90%
07:00 0°C° 0 mm 0 mps 699 mmHg 90%
08:00 +2°C° 0 mm 0 mps 700 mmHg 81%
09:00 +5°C° 0 mm 1 mps 700 mmHg 73%
10:00 +7°C° 0 mm 1 mps 700 mmHg 64%
11:00 +8°C° 0 mm 1 mps 700 mmHg 60%
12:00 +9°C° 0 mm 1 mps 701 mmHg 56%
13:00 +10°C° 0 mm 1 mps 701 mmHg 52%
14:00 +10°C° 0 mm 1 mps 701 mmHg 53%
15:00 +10°C° 0 mm 1 mps 700 mmHg 55%
16:00 +9°C° 0 mm 0 mps 700 mmHg 56%
17:00 +7°C° 0 mm 0 mps 700 mmHg 63%
18:00 +5°C° 0 mm 0 mps 700 mmHg 70%
19:00 +3°C° 0 mm 0 mps 700 mmHg 77%
20:00 +3°C° 0 mm 0 mps 700 mmHg 78%
21:00 +2°C° 0 mm 0 mps 700 mmHg 79%
22:00 +2°C° 0 mm 0 mps 700 mmHg 80%
23:00 +2°C° 0 mm 0 mps 700 mmHg 80%

Tomorrow, 3 March, Wednesday

Time Temperature Precipitation Wind Pressure Humidity
00:00 +1°C° 0 mm 0 mps 699 mmHg 80%
01:00 +1°C° 0 mm 0 mps 699 mmHg 81%
02:00 +1°C° 0 mm 0 mps 699 mmHg 79%
03:00 +1°C° 0 mm 0 mps 699 mmHg 78%
04:00 +1°C° 0 mm 0 mps 698 mmHg 77%
05:00 +1°C° 0 mm 0 mps 698 mmHg 74%
06:00 +1°C° 0 mm 0 mps 698 mmHg 71%
07:00 +2°C° 0 mm 1 mps 698 mmHg 67%
08:00 +3°C° 0 mm 0 mps 699 mmHg 60%
09:00 +6°C° 0 mm 0 mps 699 mmHg 52%
10:00 +8°C° 0 mm 0 mps 699 mmHg 44%
11:00 +10°C° 0 mm 0 mps 699 mmHg 42%
12:00 +11°C° 0 mm 0 mps 699 mmHg 41%
13:00 +13°C° 0 mm 1 mps 699 mmHg 39%
14:00 +13°C° 0 mm 1 mps 698 mmHg 42%
15:00 +11°C° 0 mm 0 mps 698 mmHg 45%
16:00 +11°C° 0 mm 0 mps 697 mmHg 48%
17:00 +10°C° 0 mm 1 mps 697 mmHg 56%
18:00 +8°C° 0 mm 1 mps 697 mmHg 65%
19:00 +6°C° 0 mm 1 mps 696 mmHg 73%
20:00 +5°C° 0 mm 1 mps 696 mmHg 74%
21:00 +5°C° 0 mm 1 mps 696 mmHg 76%
22:00 +5°C° 0 mm 1 mps 695 mmHg 77%
23:00 +4°C° 0 mm 1 mps 695 mmHg 78%

Day after tomorrow, 4 March, Thursday

Time Temperature Precipitation Wind Pressure Humidity
00:00 +4°C° 0 mm 1 mps 695 mmHg 79%
01:00 +3°C° 0 mm 1 mps 694 mmHg 80%
02:00 +3°C° 0 mm 1 mps 694 mmHg 81%
03:00 +3°C° 0 mm 1 mps 693 mmHg 81%
04:00 +2°C° 0 mm 1 mps 693 mmHg 82%
05:00 +2°C° 0 mm 1 mps 692 mmHg 82%
06:00 +2°C° 0 mm 1 mps 692 mmHg 82%
07:00 +2°C° 0 mm 1 mps 692 mmHg 82%
08:00 +4°C° 0 mm 1 mps 692 mmHg 76%
09:00 +6°C° 0 mm 1 mps 692 mmHg 70%
10:00 +8°C° 0 mm 1 mps 692 mmHg 63%
11:00 +9°C° 0 mm 1 mps 692 mmHg 61%
12:00 +10°C° 0 mm 1 mps 692 mmHg 59%
13:00 +10°C° 0 mm 2 mps 691 mmHg 57%
14:00 +9°C° 0 mm 2 mps 690 mmHg 60%
15:00 +8°C° 0 mm 2 mps 690 mmHg 63%
16:00 +8°C° 0 mm 2 mps 689 mmHg 66%
17:00 +6°C° 0 mm 2 mps 689 mmHg 73%
18:00 +5°C° 0 mm 2 mps 688 mmHg 80%
19:00 +3°C° 0 mm 2 mps 688 mmHg 87%
20:00 +4°C° 0 mm 1 mps 688 mmHg 88%
21:00 +3°C° 0 mm 1 mps 688 mmHg 89%
22:00 +3°C° 0 mm 1 mps 688 mmHg 90%
23:00 +3°C° 0 mm 1 mps 687 mmHg 90%

5 March, Friday

Time Temperature Precipitation Wind Pressure Humidity
00:00 +3°C° 0 mm 1 mps 687 mmHg 90%
01:00 +3°C° 0 mm 1 mps 687 mmHg 90%
02:00 +3°C° 0 mm 1 mps 687 mmHg 90%
03:00 +3°C° 0 mm 1 mps 687 mmHg 90%
04:00 +2°C° 0 mm 1 mps 686 mmHg 90%
05:00 +2°C° 0 mm 1 mps 686 mmHg 89%
06:00 +3°C° 0 mm 1 mps 687 mmHg 89%
07:00 +3°C° 0 mm 1 mps 687 mmHg 89%
08:00 +4°C° 0 mm 1 mps 687 mmHg 81%
09:00 +6°C° 0 mm 1 mps 688 mmHg 74%
10:00 +8°C° 0 mm 1 mps 688 mmHg 66%
11:00 +9°C° 0.1 mm 1 mps 688 mmHg 64%
12:00 +10°C° 0.1 mm 1 mps 688 mmHg 61%
13:00 +11°C° 0.1 mm 1 mps 688 mmHg 58%
14:00 +10°C° 0.4 mm 1 mps 688 mmHg 62%
15:00 +10°C° 0.4 mm 1 mps 688 mmHg 65%
16:00 +9°C° 0.4 mm 1 mps 688 mmHg 68%
17:00 +7°C° 1.1 mm 1 mps 689 mmHg 76%
18:00 +6°C° 1.1 mm 1 mps 689 mmHg 84%
19:00 +5°C° 1.1 mm 1 mps 690 mmHg 92%
20:00 +4°C° 1.7 mm 1 mps 690 mmHg 93%
21:00 +3°C° 1.7 mm 1 mps 691 mmHg 94%
22:00 +3°C° 1.7 mm 1 mps 692 mmHg 95%
23:00 +2°C° 1.4 mm 1 mps 692 mmHg 95%

6 March, Saturday

Time Temperature Precipitation Wind Pressure Humidity
00:00 +1°C° 1.4 mm 1 mps 693 mmHg 96%
01:00 -1°C° 1.4 mm 2 mps 693 mmHg 96%
02:00 -2°C° 0.4 mm 2 mps 693 mmHg 95%
03:00 -1°C° 0.4 mm 1 mps 693 mmHg 95%
04:00 -2°C° 0.4 mm 1 mps 694 mmHg 94%
05:00 -2°C° 0.1 mm 1 mps 694 mmHg 94%
06:00 -2°C° 0.1 mm 1 mps 694 mmHg 94%
07:00 -3°C° 0.1 mm 1 mps 695 mmHg 93%
08:00 -2°C° 0 mm 1 mps 695 mmHg 88%
09:00 -3°C° 0 mm 2 mps 696 mmHg 83%
10:00 -2°C° 0 mm 2 mps 696 mmHg 77%
11:00 -1°C° 0 mm 2 mps 696 mmHg 75%
12:00 +1°C° 0 mm 2 mps 696 mmHg 72%
13:00 +1°C° 0 mm 2 mps 696 mmHg 69%
14:00 +1°C° 0 mm 2 mps 696 mmHg 69%
15:00 +2°C° 0 mm 1 mps 696 mmHg 70%
16:00 +2°C° 0 mm 1 mps 695 mmHg 70%
17:00 0°C° 0 mm 1 mps 695 mmHg 75%
18:00 -1°C° 0 mm 1 mps 695 mmHg 81%
19:00 -2°C° 0 mm 1 mps 695 mmHg 86%
20:00 -3°C° 0 mm 1 mps 695 mmHg 86%
21:00 -3°C° 0 mm 1 mps 695 mmHg 85%
22:00 -4°C° 0 mm 1 mps 696 mmHg 85%
23:00 -4°C° 0 mm 1 mps 695 mmHg 85%

7 March, Sunday

Time Temperature Precipitation Wind Pressure Humidity
00:00 -4°C° 0 mm 1 mps 695 mmHg 84%
01:00 -4°C° 0 mm 1 mps 695 mmHg 83%
02:00 -5°C° 0 mm 0 mps 694 mmHg 83%
03:00 -5°C° 0 mm 0 mps 694 mmHg 82%
04:00 -5°C° 0 mm 0 mps 693 mmHg 81%
05:00 -5°C° 0 mm 0 mps 693 mmHg 80%
06:00 -5°C° 0 mm 0 mps 693 mmHg 79%
07:00 -5°C° 0 mm 0 mps 693 mmHg 78%
08:00 -3°C° 0 mm 0 mps 693 mmHg 72%
09:00 -1°C° 0 mm 0 mps 693 mmHg 65%
10:00 +2°C° 0 mm 0 mps 693 mmHg 59%
11:00 +3°C° 0 mm 0 mps 693 mmHg 57%
12:00 +4°C° 0 mm 0 mps 693 mmHg 55%
13:00 +6°C° 0 mm 1 mps 692 mmHg 54%
14:00 +6°C° 0 mm 1 mps 692 mmHg 56%
15:00 +5°C° 0 mm 1 mps 691 mmHg 58%
16:00 +5°C° 0 mm 1 mps 690 mmHg 60%
17:00 +3°C° 0 mm 1 mps 690 mmHg 67%
18:00 +1°C° 0 mm 1 mps 690 mmHg 74%
19:00 0°C° 0 mm 1 mps 689 mmHg 82%
20:00 -1°C° 0 mm 1 mps 689 mmHg 82%
21:00 -2°C° 0 mm 0 mps 690 mmHg 82%
22:00 -2°C° 0 mm 0 mps 690 mmHg 82%
23:00 -2°C° 0 mm 0 mps 689 mmHg 83%
Show more

We Need Your Consent

Meteoprog and our Service Providers may store and access personal data such as cookies, device identifiers or other similar technologies on your device and process such data to personalise content and ads, as well as provide social media features and to analyse the traffic.

  • Store and/or access information on your device

    Cookies, device identifiers or other information can be stored or accessed on your device for the purposes indicated above.

  • Personalised ads and content, ad and content measurement, audience insights, and products development

    Ads and content can be personalised based on a profile. More data can be added to better personalise ads and content. Ad and content performance can be measured. Insights about the audience who saw the ads and content can be derived. Such data can be used to develop or improve user’s experience, systems and software.

By clicking ‘I Agree’ you will allow the use of indicated cookies, device identifiers, web beacons or other similar technologies. Your settings can be changed in the browser on your device.

For certain purposes, legitimate interests may be relied on, rather than consent. You can read more about this in our Privacy and Cookie Policy.